Regional Weather Roundup
Issued by NWS

Home | Current Version | Previous Version | Graphics & Text | Print | Product List | Glossary On
Versions: 1 2 3 4 5 6 7 8 9 10 11 12 13 14 15 16 17 18 19 20 21 22 23 24 25 26 27 28 29 30 31 32 33 34 35 36 37 38 39 40 41 42 43 44 45 46 47 48 49 50
679
ASUS43 KMKX 281600
RWRWI

WISCONSIN REGIONAL WEATHER ROUNDUP
NATIONAL WEATHER SERVICE MILWAUKEE/SULLIVAN WI
1100 AM CDT SUN MAY 28 2017

NOTE: "FAIR" INDICATES FEW OR NO CLOUDS BELOW 12,000 FEET WITH NO
SIGNIFICANT WEATHER AND/OR OBSTRUCTIONS TO VISIBILITY.

WIZ001-002-006>008-014>016-023>028-281700-
NORTHWEST WISCONSIN

CITY           SKY/WX    TMP DP  RH WIND       PRES   REMARKS
SUPERIOR ARPT  NOT AVBL
ASHLAND        HVY RAIN  55  53  93 VRB5      29.66F FOG
HAYWARD        CLOUDY    60  53  77 S6        29.67F
SIREN          MOSUNNY   63  47  55 W16       29.69F
CUMBERLAND     PTSUNNY   61  46  59 W10       29.70S
RICE LAKE      MOSUNNY   64  50  59 W10G16    29.71S
CHETEK         MOSUNNY   65  52  63 W10       29.69F
LADYSMITH      PTSUNNY   63  53  70 SW12      29.70F
EAU CLAIRE     NOT AVBL
MENOMONIE      MOSUNNY   67  50  55 SW14G21   29.71S
NEW RICHMOND   MOSUNNY   64  45  51 W14G20    29.72S
OSCEOLA        MOSUNNY   64  46  52 W15G24    29.75S
$$

WIZ003>005-009-010-017-018-281700-
NORTH CENTRAL WISCONSIN

CITY           SKY/WX    TMP DP  RH WIND       PRES   REMARKS
MANITOWISH WTR CLOUDY    62  51  68 S7        29.68F
ARBOR VITAE    MOSUNNY   64  51  62 SE8       29.68F
WOODRUFF       MOSUNNY   64  51  62 SE8       29.68F
RHINELANDER    SUNNY     66  50  56 MISG      29.71F
EAGLE RIVER    MOSUNNY   61  49  65 SE7       29.70F
LAND O LAKES   MOSUNNY   63  50  63 S5        29.71F
PHILLIPS       MOSUNNY   65  52  62 S12G18    29.67F
TOMAHAWK       SUNNY     65  52  62 S5        29.71F
MEDFORD        SUNNY     64  52  64 S15       29.71F
MERRILL        SUNNY     65  52  63 S7        29.72F
$$

WIZ029-030-035-036-043>047-281700-
CENTRAL WISCONSIN

CITY           SKY/WX    TMP DP  RH WIND       PRES   REMARKS
WAUSAU         SUNNY     66  52  60 S9        29.70F
MOSINEE        MOSUNNY   64  52  63 S5        29.73F
MARSHFIELD     SUNNY     66  52  60 SW13      29.71F
STEVENS POINT  SUNNY     63  50  62 S6        29.74F
WAUPACA        MOSUNNY   67  55  64 SE5       29.75F
WAUTOMA        MOSUNNY   66  57  72 S8        29.75F
WISC RAPIDS    SUNNY     68  53  58 VRB6      29.74F
CAMP DOUGLAS   NOT AVBL
$$

WIZ011>013-019>022-031-037>040-048>050-281700-
NORTHEAST WISCONSIN

CITY           SKY/WX    TMP DP  RH WIND       PRES   REMARKS
ANTIGO         SUNNY     62  50  65 CALM      29.73F
SHAWANO        MOSUNNY   65  57  76 E5        29.75S
OCONTO         CLOUDY    57  56  96 SW3       29.75F
STURGEON BAY   LGT RAIN  56  55  97 CALM      29.73F
GREEN BAY      CLOUDY    58  58 100 SW3       29.74F
MANITOWOC      NOT AVBL
APPLETON       PTSUNNY   57  55  94 VRB3      29.75S
CLINTONVILLE   SUNNY     63  52  67 CALM      29.74F
OSHKOSH        CLOUDY    60  57  89 VRB5      29.75F
$$

WIZ032>034-041-042-053>061-281700-
SOUTHWEST WISCONSIN

CITY           SKY/WX    TMP DP  RH WIND       PRES   REMARKS
LA CROSSE      SUNNY     72  55  55 W12       29.72F
SPARTA         MOSUNNY   70  53  56 W10       29.74F
VIROQUA        SUNNY     69  51  53 SW8       29.76F
BOSCOBEL       SUNNY     71  53  52 SW6       29.76F
PRAIRIE DU CHI SUNNY     71  50  46 W12       29.76F
PLATTEVILLE    SUNNY     67  51  55 W6        29.80S
$$

WIZ056-057-062-063-064-067-068-281700-
SOUTH CENTRAL WISCONSIN

CITY           SKY/WX    TMP DP  RH WIND       PRES   REMARKS
REEDSBURG      SUNNY     67  51  57 S5        29.75F
BARABOO/DELLS  SUNNY     66  55  67 S3        29.76F
LONE ROCK      NOT AVBL
MINERAL POINT  SUNNY     68  50  52 W5        29.78F
MADISON        PTSUNNY   64  55  72 CALM      29.77S
MIDDLETON      MOSUNNY   65  56  72 CALM      29.78F
WATERTOWN      LGT RAIN  58  58 100 NE3       29.77S
MONROE         CLOUDY    63  55  77 NE5       29.79S
JANESVILLE     PTSUNNY   59  59 100 NE9       29.77S
$$

WIZ051-052-058>065-066-070>072-281700-
SOUTHEAST WISCONSIN

CITY           SKY/WX    TMP DP  RH WIND       PRES   REMARKS
MILWAUKEE      LGT RAIN  59  58  96 N8        29.75F FOG
WAUKESHA       LGT RAIN  55  55 100 N5        29.77F
MILWAUKEE/TIMM LGT RAIN  57  54  88 N5        29.77F
RACINE         RAIN      59  58  96 N5        29.76F FOG
KENOSHA        LGT RAIN  61  59  93 CALM      29.75F FOG
FOND DU LAC    CLOUDY    59  54  83 CALM      29.76F
SHEBOYGAN      LGT RAIN  58  57  97 SE5       29.74F
WEST BEND      LGT RAIN  55  55 100 E3        29.76F
JUNEAU         CLOUDY    57  55  92 CALM      29.78S
$$

LSZ147-162-281700-
LAKE SUPERIOR

STATION/POSITION TIME  TEMP    WIND        PRES    WAVE
                       AIR SEA DIR/SP/G            HT/PER
                 (UTC) (F)     (DEG/KT/KT) (MB)    (FT/S)
W MID LAKE BUOY  1450   44 38  160/ 10/ 10 1004.9S   1
DEVILS ISLAND    1500   51     280/  8/  9 1004.8R
PORT WING        1530   57     220/  4/  6 1005.1R
SAXON HARBOR     1540   55     310/  3/  4 1004.1F
$$

LMZ867-665-643>646-281700-
LAKE MICHIGAN

STATION/POSITION TIME  TEMP    WIND        PRES    WAVE
                       AIR SEA DIR/SP/G            HT/PER
                 (UTC) (F)     (DEG/KT/KT) (MB)    (FT/S)
CHAMBERS ISLAND  1540   57     140/  3/  5 1006.8F
N MID LAKE BUOY  1450   47 41  240/ 12/ 14 1008.0R   0
NORTHPORT PIER   1540   56     300/  4/  7 1007.1F
SISTER BAY       1451   55     250/  7/  8   N/A
KEWAUNEE LAKESHO 1530   57     290/  7/ 11 1007.4F
SHEBOYGAN LAKESH 1500   56     300/  4/  6 1007.8F
PORT WASHINGTON  1530   58     340/  2/  5 1008.8F
ATWATER BUOY     1409   53      20/  6/  6 1008.6R
MILWAUKEE LAKESH 1530   57     350/  7/  8   N/A
S MID LAKE BUOY  1450   53 51  330/  4/  4 1008.0R   0
KENOSHA   LAKESH 1500   61     350/  8/ 10 1008.1
$$

TC  - TEMPERATURE IN CELSIUS
VSB - VISIBILITY IN STATUTE MILES
WCI - WIND CHILL INDEX
HX  - HEAT INDEX





USA.gov is the U.S. government's official web portal to all federal, state and local government web resources and services.